Date,TemperatureHighF,TemperatureAvgF,TemperatureLowF,DewpointHighF,DewpointAvgF,DewpointLowF,HumidityHigh,HumidityAvg,HumidityLow,PressureMaxIn,PressureMinIn,WindSpeedMaxMPH,WindSpeedAvgMPH,GustSpeedMaxMPH,PrecipitationSumIn
2013-1-1,32,25,18,-100,-100,-100,0,0,100,0.00,40.00,0,-999,0,0.01
2013-1-2,43,33,24,-100,-100,-100,0,0,100,0.00,40.00,0,-999,0,0.06
2013-1-3,45,38,32,-100,-100,-100,0,0,100,0.00,40.00,0,-999,0,0.04
2013-1-4,47,38,31,-100,-100,-100,0,0,100,0.00,40.00,0,-999,0,0.00
2013-1-5,41,37,33,-100,-100,-100,0,0,100,0.00,40.00,0,-999,0,0.00
2013-1-6,32,27,25,-100,-100,-100,0,0,100,0.00,40.00,0,-999,0,0.02
2013-1-7,41,32,24,-100,-100,-100,0,0,100,0.00,40.00,0,-999,0,0.01
2013-1-8,54,40,30,-100,-100,-100,0,0,100,0.00,40.00,0,-999,0,0.00
2013-1-9,45,38,18,-100,-100,-100,0,0,100,0.00,40.00,0,-999,0,0.01
2013-1-10,20,15,11,-100,-100,-100,0,0,100,0.00,40.00,0,-999,0,0.02
2013-1-11,20,14,10,-100,-100,-100,0,0,100,0.00,40.00,0,-999,0,0.01
2013-1-12,25,14,5,-100,-100,-100,0,0,100,0.00,40.00,0,-999,0,0.02
2013-1-13,24,15,7,-100,-100,-100,0,0,100,0.00,40.00,0,-999,0,0.01
2013-1-14,31,24,13,-100,-100,-100,0,0,100,0.00,40.00,0,-999,0,0.00
2013-1-15,42,35,27,-100,-100,-100,0,0,100,0.00,40.00,0,-999,0,0.00
2013-1-16,46,35,28,-100,-100,-100,0,0,100,0.00,40.00,0,-999,0,0.00
2013-1-17,48,37,30,-100,-100,-100,0,0,100,0.00,40.00,0,-999,0,0.00
2013-1-18,49,38,32,-100,-100,-100,0,0,100,0.00,40.00,0,-999,0,0.00
2013-1-19,50,37,32,-100,-100,-100,0,0,100,0.00,40.00,0,-999,0,0.00
2013-1-20,44,36,30,-100,-100,-100,0,0,100,0.00,40.00,0,-999,0,0.00
2013-1-21,52,42,34,-100,-100,-100,0,0,100,0.00,40.00,0,-999,0,0.00
2013-1-22,52,45,39,-100,-100,-100,0,0,100,0.00,40.00,0,-999,0,0.00
2013-1-23,44,40,34,-100,-100,-100,0,0,100,0.00,40.00,0,-999,0,0.01
2013-1-24,41,37,34,-100,-100,-100,0,0,100,0.00,40.00,0,-999,0,0.02
2013-1-25,40,38,36,-100,-100,-100,0,0,100,0.00,40.00,0,-999,0,0.01
2013-1-26,40,34,27,-100,-100,-100,0,0,100,0.00,40.00,0,-999,0,0.01
2013-1-27,27,22,17,-100,-100,-100,0,0,100,0.00,40.00,0,-999,0,0.01
2013-1-28,28,22,14,-100,-100,-100,0,0,100,0.00,40.00,0,-999,0,0.02
2013-1-29,40,34,26,-100,-100,-100,0,0,100,0.00,40.00,0,-999,0,0.01
2013-1-30,47,38,31,-100,-100,-100,0,0,100,0.00,40.00,0,-999,0,0.00
2013-1-31,51,42,31,-100,-100,-100,0,0,100,0.00,40.00,0,-999,0,0.00
2013-2-1,52,41,34,-100,-100,-100,0,0,100,0.00,40.00,0,-999,0,0.00
2013-2-2,47,40,35,-100,-100,-100,0,0,100,0.00,40.00,0,-999,0,0.01
2013-2-3,46,39,32,-100,-100,-100,0,0,100,0.00,40.00,0,-999,0,0.00
2013-2-4,52,41,31,-100,-100,-100,0,0,100,0.00,40.00,0,-999,0,0.00
2013-2-5,42,37,29,-100,-100,-100,0,0,100,0.00,40.00,0,-999,0,0.01
2013-2-6,44,34,24,-100,-100,-100,0,0,100,0.00,40.00,0,-999,0,0.00
2013-2-7,33,26,18,-100,-100,-100,0,0,100,0.00,40.00,0,-999,0,0.01
2013-2-8,23,19,13,-100,-100,-100,0,0,100,0.00,40.00,0,-999,0,0.02
2013-2-9,33,23,15,-100,-100,-100,0,0,100,0.00,40.00,0,-999,0,0.01
2013-2-10,30,25,21,-100,-100,-100,0,0,100,0.00,40.00,0,-999,0,0.00
2013-2-11,35,26,18,-100,-100,-100,0,0,100,0.00,40.00,0,-999,0,0.01
2013-2-12,43,33,25,-100,-100,-100,0,0,100,0.00,40.00,0,-999,0,0.00
2013-2-13,40,34,27,-100,-100,-100,0,0,100,0.00,40.00,0,-999,0,0.00
2013-2-14,43,36,30,-100,-100,-100,0,0,100,0.00,40.00,0,-999,0,0.00
2013-2-15,52,40,29,-100,-100,-100,0,0,100,0.00,40.00,0,-999,0,0.00
2013-2-16,47,40,34,-100,-100,-100,0,0,100,0.00,40.00,0,-999,0,0.00
2013-2-17,45,37,31,-100,-100,-100,0,0,100,0.00,40.00,0,-999,0,0.00
2013-2-18,41,34,28,-100,-100,-100,0,0,100,0.00,40.00,0,-999,0,0.02
2013-2-19,28,21,16,-100,-100,-100,0,0,100,0.00,40.00,0,-999,0,0.01
2013-2-20,31,23,18,-100,-100,-100,0,0,100,0.00,40.00,0,-999,0,0.01
2013-2-21,31,23,18,-100,-100,-100,0,0,100,0.00,40.00,0,-999,0,0.01
2013-2-22,42,32,22,-100,-100,-100,0,0,100,0.00,40.00,0,-999,0,0.01
2013-2-23,31,28,26,-100,-100,-100,0,0,100,0.00,40.00,0,-999,0,0.00
2013-2-25,37,31,27,-100,-100,-100,0,0,100,0.00,40.00,0,-999,0,0.00
2013-2-26,38,28,23,-100,-100,-100,0,0,100,0.00,40.00,0,-999,0,0.00
2013-2-27,42,34,27,-100,-100,-100,0,0,100,0.00,40.00,0,-999,0,0.00
2013-2-28,47,37,31,-100,-100,-100,0,0,100,0.00,40.00,0,-999,0,0.00
2013-3-1,53,42,34,-100,-100,-100,0,0,100,0.00,40.00,0,-999,0,0.00
2013-3-2,50,44,38,-100,-100,-100,0,0,100,0.00,40.00,0,-999,0,0.01
2013-3-3,37,33,29,-100,-100,-100,0,0,100,0.00,40.00,0,-999,0,0.02
2013-3-4,45,35,25,-100,-100,-100,0,0,100,0.00,40.00,0,-999,0,0.01
2013-3-5,38,35,33,-100,-100,-100,0,0,100,0.00,40.00,0,-999,0,0.04
2013-3-6,28,25,22,-100,-100,-100,0,0,100,0.00,40.00,0,-999,0,0.06
2013-3-7,30,26,24,-100,-100,-100,0,0,100,0.00,40.00,0,-999,0,0.01
2013-3-8,33,26,21,-100,-100,-100,0,0,100,0.00,40.00,0,-999,0,0.01
2013-3-9,39,31,25,-100,-100,-100,0,0,100,0.00,40.00,0,-999,0,0.01
2013-3-10,50,37,25,-100,-100,-100,0,0,100,0.00,40.00,0,-999,0,0.00
2013-3-11,53,40,33,-100,-100,-100,0,0,100,0.00,40.00,0,-999,0,0.00
2013-3-12,57,46,36,-100,-100,-100,0,0,100,0.00,40.00,0,-999,0,0.00
2013-3-13,58,52,46,-100,-100,-100,0,0,100,0.00,40.00,0,-999,0,0.01
2013-3-14,56,51,47,-100,-100,-100,0,0,100,0.00,40.00,0,-999,0,0.01
2013-3-15,53,47,41,-100,-100,-100,0,0,100,0.00,40.00,0,-999,0,0.00
2013-3-16,48,41,34,-100,-100,-100,0,0,100,0.00,40.00,0,-999,0,0.02
2013-3-17,48,38,31,-100,-100,-100,0,0,100,0.00,40.00,0,-999,0,0.01
2013-3-18,47,38,33,-100,-100,-100,0,0,100,0.00,40.00,0,-999,0,0.01
2013-3-19,45,38,33,-100,-100,-100,0,0,100,0.00,40.00,0,-999,0,0.01
2013-3-20,34,33,31,-100,-100,-100,0,0,100,0.00,40.00,0,-999,0,0.06
2013-3-21,41,33,23,-100,-100,-100,0,0,100,0.00,40.00,0,-999,0,0.01
2013-3-22,44,35,26,-100,-100,-100,0,0,100,0.00,40.00,0,-999,0,0.00
2013-3-23,45,36,26,-100,-100,-100,0,0,100,0.00,40.00,0,-999,0,0.00
2013-3-24,50,40,31,-100,-100,-100,0,0,100,0.00,40.00,0,-999,0,0.02
2013-3-25,50,42,37,-100,-100,-100,0,0,100,0.00,40.00,0,-999,0,0.01
2013-3-26,38,36,33,-100,-100,-100,0,0,100,0.00,40.00,0,-999,0,0.02
2013-3-27,45,38,34,-100,-100,-100,0,0,100,0.00,40.00,0,-999,0,0.02
2013-3-28,43,38,35,-100,-100,-100,0,0,100,0.00,40.00,0,-999,0,0.02
2013-3-29,52,42,33,-100,-100,-100,0,0,100,0.00,40.00,0,-999,0,0.01
2013-3-30,50,44,38,-100,-100,-100,0,0,100,0.00,40.00,0,-999,0,0.01
2013-3-31,44,36,31,-100,-100,-100,0,0,100,0.00,40.00,0,-999,0,0.01
2013-4-1,38,33,31,-100,-100,-100,0,0,100,0.00,40.00,0,-999,0,0.01
2013-4-2,48,40,29,-100,-100,-100,0,0,100,0.00,40.00,0,-999,0,0.00
2013-4-3,55,44,36,-100,-100,-100,0,0,100,0.00,40.00,0,-999,0,0.01
2013-4-4,46,40,35,-100,-100,-100,0,0,100,0.00,40.00,0,-999,0,0.04
2013-4-5,43,37,32,-100,-100,-100,0,0,100,0.00,40.00,0,-999,0,0.02
2013-4-6,45,37,33,-100,-100,-100,0,0,100,0.00,40.00,0,-999,0,0.01
2013-4-7,42,35,29,-100,-100,-100,0,0,100,0.00,40.00,0,-999,0,0.01
2013-4-8,32,27,24,-100,-100,-100,0,0,100,0.00,40.00,0,-999,0,0.04
2013-4-9,42,38,36,-100,-100,-100,0,0,100,0.00,40.00,0,-999,0,0.00
2013-4-10,54,43,35,-100,-100,-100,0,0,100,0.00,40.00,0,-999,0,0.00
2013-4-11,51,46,39,-100,-100,-100,0,0,100,0.00,40.00,0,-999,0,0.01
2013-4-12,56,43,34,-100,-100,-100,0,0,100,0.00,40.00,0,-999,0,0.00
2013-4-13,49,44,39,-100,-100,-100,0,0,100,0.00,40.00,0,-999,0,0.01
2013-4-14,45,39,33,-100,-100,-100,0,0,100,0.00,40.00,0,-999,0,0.01
2013-4-15,34,28,22,-100,-100,-100,0,0,100,0.00,40.00,0,-999,0,0.02
2013-4-16,29,24,20,-100,-100,-100,0,0,100,0.00,40.00,0,-999,0,0.07
2013-4-17,36,27,18,-100,-100,-100,0,0,100,0.00,40.00,0,-999,0,0.03
2013-4-18,46,34,24,-100,-100,-100,0,0,100,0.00,40.00,0,-999,0,0.01
2013-4-19,50,41,35,-100,-100,-100,0,0,100,0.00,40.00,0,-999,0,0.01
2013-4-20,57,43,33,-100,-100,-100,0,0,100,0.00,40.00,0,-999,0,0.00
2013-4-21,61,46,39,-100,-100,-100,0,0,100,0.00,40.00,0,-999,0,0.00
2013-4-22,57,46,40,-100,-100,-100,0,0,100,0.00,40.00,0,-999,0,0.00
2013-4-23,56,40,30,-100,-100,-100,0,0,100,0.00,40.00,0,-999,0,0.01
2013-4-24,52,47,42,-100,-100,-100,0,0,100,0.00,40.00,0,-999,0,0.01
2013-4-25,54,45,36,-100,-100,-100,0,0,100,0.00,40.00,0,-999,0,0.00
2013-4-26,59,50,41,-100,-100,-100,0,0,100,0.00,40.00,0,-999,0,0.01
2013-4-27,61,52,44,-100,-100,-100,0,0,100,0.00,40.00,0,-999,0,0.02
2013-4-28,62,51,43,-100,-100,-100,0,0,100,0.00,40.00,0,-999,0,0.00
2013-4-29,60,52,44,-100,-100,-100,0,0,100,0.00,40.00,0,-999,0,0.01
2013-4-30,58,50,41,-100,-100,-100,0,0,100,0.00,40.00,0,-999,0,0.01
2013-5-1,51,43,33,-100,-100,-100,0,0,100,0.00,40.00,0,-999,0,0.01
2013-5-2,61,48,36,-100,-100,-100,0,0,100,0.00,40.00,0,-999,0,0.01
2013-5-3,62,54,44,-100,-100,-100,0,0,100,0.00,40.00,0,-999,0,0.00
2013-5-4,53,47,39,-100,-100,-100,0,0,100,0.00,40.00,0,-999,0,0.01
2013-5-5,49,43,36,-100,-100,-100,0,0,100,0.00,40.00,0,-999,0,0.03
2013-5-6,40,36,34,-100,-100,-100,0,0,100,0.00,40.00,0,-999,0,0.04
2013-5-7,40,36,34,-100,-100,-100,0,0,100,0.00,40.00,0,-999,0,0.01
2013-5-8,50,42,34,-100,-100,-100,0,0,100,0.00,40.00,0,-999,0,0.01
2013-5-9,56,47,38,-100,-100,-100,0,0,100,0.00,40.00,0,-999,0,0.00
2013-5-10,61,52,44,-100,-100,-100,0,0,100,0.00,40.00,0,-999,0,0.00
2013-5-11,63,55,47,-100,-100,-100,0,0,100,0.00,40.00,0,-999,0,0.00
2013-5-12,65,56,49,-100,-100,-100,0,0,100,0.00,40.00,0,-999,0,0.00
2013-5-13,63,57,52,-100,-100,-100,0,0,100,0.00,40.00,0,-999,0,0.02
2013-5-14,60,52,46,-100,-100,-100,0,0,100,0.00,40.00,0,-999,0,0.02
2013-5-15,56,50,43,-100,-100,-100,0,0,100,0.00,40.00,0,-999,0,0.01
2013-5-16,44,40,37,-100,-100,-100,0,0,100,0.00,40.00,0,-999,0,0.05
2013-5-17,47,41,36,-100,-100,-100,0,0,100,0.00,40.00,0,-999,0,0.02
2013-5-18,51,42,35,-100,-100,-100,0,0,100,0.00,40.00,0,-999,0,0.00
2013-5-19,54,44,36,-100,-100,-100,0,0,100,0.00,40.00,0,-999,0,0.02
2013-5-20,61,50,36,-100,-100,-100,0,0,100,0.00,40.00,0,-999,0,0.00
2013-5-21,53,48,41,-100,-100,-100,0,0,100,0.00,40.00,0,-999,0,0.02
2013-5-22,44,39,31,-100,-100,-100,0,0,100,0.00,40.00,0,-999,0,0.01
2013-5-23,45,37,30,-100,-100,-100,0,0,100,0.00,40.00,0,-999,0,0.01
2013-5-24,53,44,36,-100,-100,-100,0,0,100,0.00,40.00,0,-999,0,0.01
2013-5-25,53,45,39,-100,-100,-100,0,0,100,0.00,40.00,0,-999,0,0.01
2013-5-26,50,43,38,-100,-100,-100,0,0,100,0.00,40.00,0,-999,0,0.02
2013-5-27,47,41,38,-100,-100,-100,0,0,100,0.00,40.00,0,-999,0,0.02
2013-5-28,49,43,38,-100,-100,-100,0,0,100,0.00,40.00,0,-999,0,0.04
2013-5-29,52,44,36,-100,-100,-100,0,0,100,0.00,40.00,0,-999,0,0.01
2013-5-30,56,48,40,-100,-100,-100,0,0,100,0.00,40.00,0,-999,0,0.01
2013-5-31,63,52,40,-100,-100,-100,0,0,100,0.00,40.00,0,-999,0,0.00
2013-6-1,68,58,47,-100,-100,-100,0,0,100,0.00,40.00,0,-999,0,0.00
2013-6-2,66,60,55,-100,-100,-100,0,0,100,0.00,40.00,0,-999,0,0.01
2013-6-3,68,58,47,-100,-100,-100,0,0,100,0.00,40.00,0,-999,0,0.01
2013-6-4,69,60,51,-100,-100,-100,0,0,100,0.00,40.00,0,-999,0,0.02
2013-6-5,72,62,52,-100,-100,-100,0,0,100,0.00,40.00,0,-999,0,0.01
2013-6-6,74,62,53,-100,-100,-100,0,0,100,0.00,40.00,0,-999,0,0.04
2013-6-7,76,63,54,-100,-100,-100,0,0,100,0.00,40.00,0,-999,0,0.01
2013-6-8,76,66,57,-100,-100,-100,0,0,100,0.00,40.00,0,-999,0,0.01
2013-6-9,76,65,58,-100,-100,-100,0,0,100,0.00,40.00,0,-999,0,0.03
2013-6-10,59,54,48,-100,-100,-100,0,0,100,0.00,40.00,0,-999,0,0.01
2013-6-11,60,54,48,-100,-100,-100,0,0,100,0.00,40.00,0,-999,0,0.01
2013-6-12,60,55,47,-100,-100,-100,0,0,100,0.00,40.00,0,-999,0,0.01
2013-6-13,57,50,42,-100,-100,-100,0,0,100,0.00,40.00,0,-999,0,0.02
2013-6-14,59,50,38,-100,-100,-100,0,0,100,0.00,40.00,0,-999,0,0.01
2013-6-15,61,53,45,-100,-100,-100,0,0,100,0.00,40.00,0,-999,0,0.01
2013-6-16,62,54,46,-100,-100,-100,0,0,100,0.00,40.00,0,-999,0,0.01
2013-6-17,60,54,46,-100,-100,-100,0,0,100,0.00,40.00,0,-999,0,0.02
2013-6-18,55,48,39,-100,-100,-100,0,0,100,0.00,40.00,0,-999,0,0.04
2013-6-19,50,42,36,-100,-100,-100,0,0,100,0.00,40.00,0,-999,0,0.01
2013-6-20,54,43,37,-100,-100,-100,0,0,100,0.00,40.00,0,-999,0,0.01
2013-6-22,63,57,45,-100,-100,-100,0,0,100,0.00,40.00,0,-999,0,0.00
2013-6-23,55,50,44,-100,-100,-100,0,0,100,0.00,40.00,0,-999,0,0.02
2013-6-24,45,44,43,-100,-100,-100,0,0,100,0.00,40.00,0,-999,0,0.06
2013-6-25,50,48,45,-100,-100,-100,0,0,100,0.00,40.00,0,-999,0,0.06
2013-6-26,63,56,50,-100,-100,-100,0,0,100,0.00,40.00,0,-999,0,0.02
2013-6-27,71,64,56,-100,-100,-100,0,0,100,0.00,40.00,0,-999,0,0.00
2013-6-28,76,67,57,-100,-100,-100,0,0,100,0.00,40.00,0,-999,0,0.00
2013-6-29,77,68,56,-100,-100,-100,0,0,100,0.00,40.00,0,-999,0,0.00
2013-6-30,75,68,59,-100,-100,-100,0,0,100,0.00,40.00,0,-999,0,0.01
2013-7-1,79,69,64,-100,-100,-100,0,0,100,0.00,40.00,0,-999,0,0.02
2013-7-2,79,69,60,-100,-100,-100,0,0,100,0.00,40.00,0,-999,0,0.03
2013-7-3,76,65,56,-100,-100,-100,0,0,100,0.00,40.00,0,-999,0,0.01
2013-7-4,74,67,58,-100,-100,-100,0,0,100,0.00,40.00,0,-999,0,0.01
2013-7-5,72,66,60,-100,-100,-100,0,0,100,0.00,40.00,0,-999,0,0.01
2013-7-6,70,63,61,-100,-100,-100,0,0,100,0.00,40.00,0,-999,0,0.03
2013-7-7,70,64,59,-100,-100,-100,0,0,100,0.00,40.00,0,-999,0,0.01
2013-7-8,70,63,59,-100,-100,-100,0,0,100,0.00,40.00,0,-999,0,0.01
2013-7-9,69,62,55,-100,-100,-100,0,0,100,0.00,40.00,0,-999,0,0.01
2013-7-10,69,63,55,-100,-100,-100,0,0,100,0.00,40.00,0,-999,0,0.00
2013-7-11,65,60,56,-100,-100,-100,0,0,100,0.00,40.00,0,-999,0,0.02
2013-7-12,65,59,52,-100,-100,-100,0,0,100,0.00,40.00,0,-999,0,0.00
2013-7-13,67,60,50,-100,-100,-100,0,0,100,0.00,40.00,0,-999,0,0.00
2013-7-14,70,63,56,-100,-100,-100,0,0,100,0.00,40.00,0,-999,0,0.00
2013-7-15,68,60,54,-100,-100,-100,0,0,100,0.00,40.00,0,-999,0,0.00
2013-7-16,65,60,55,-100,-100,-100,0,0,100,0.00,40.00,0,-999,0,0.01
2013-7-17,69,60,51,-100,-100,-100,0,0,100,0.00,40.00,0,-999,0,0.00
2013-7-18,74,65,54,-100,-100,-100,0,0,100,0.00,40.00,0,-999,0,1.94
2013-7-19,78,66,57,-100,-100,-100,0,0,100,0.00,40.00,0,-999,0,1.94
2013-7-20,81,69,61,-100,-100,-100,0,0,100,0.00,40.00,0,-999,0,0.00
2013-7-21,81,70,61,-100,-100,-100,0,0,100,0.00,40.00,0,-999,0,0.01
2013-7-22,75,65,58,-100,-100,-100,0,0,100,0.00,40.00,0,-999,0,0.01
2013-7-23,66,60,53,-100,-100,-100,0,0,100,0.00,40.00,0,-999,0,0.01
2013-7-24,70,62,54,-100,-100,-100,0,0,100,0.00,40.00,0,-999,0,0.00
2013-7-25,71,62,57,-100,-100,-100,0,0,100,0.00,40.00,0,-999,0,0.01
2013-7-26,71,63,56,-100,-100,-100,0,0,100,0.00,40.00,0,-999,0,0.00
2013-7-27,71,62,54,-100,-100,-100,0,0,100,0.00,40.00,0,-999,0,0.00
2013-7-28,68,61,54,-100,-100,-100,0,0,100,0.00,40.00,0,-999,0,0.01
2013-7-29,66,60,56,-100,-100,-100,0,0,100,0.00,40.00,0,-999,0,0.01
2013-7-30,66,60,55,-100,-100,-100,0,0,100,0.00,40.00,0,-999,0,0.00
2013-7-31,66,60,52,-100,-100,-100,0,0,100,0.00,40.00,0,-999,0,0.01
2013-8-1,60,54,48,-100,-100,-100,0,0,100,0.00,40.00,0,-999,0,0.01
2013-8-2,65,56,46,-100,-100,-100,0,0,100,0.00,40.00,0,-999,0,0.00
2013-8-3,66,58,48,-100,-100,-100,0,0,100,0.00,40.00,0,-999,0,0.00
2013-8-4,68,62,55,-100,-100,-100,0,0,100,0.00,40.00,0,-999,0,0.00
2013-8-5,69,61,54,-100,-100,-100,0,0,100,0.00,40.00,0,-999,0,0.01
2013-8-6,69,60,52,-100,-100,-100,0,0,100,0.00,40.00,0,-999,0,0.00
2013-8-7,63,56,50,-100,-100,-100,0,0,100,0.00,40.00,0,-999,0,0.01
2013-8-8,61,53,46,-100,-100,-100,0,0,100,0.00,40.00,0,-999,0,0.01
2013-8-9,62,53,47,-100,-100,-100,0,0,100,0.00,40.00,0,-999,0,0.00
2013-8-10,61,54,48,-100,-100,-100,0,0,100,0.00,40.00,0,-999,0,0.01
2013-8-11,63,56,47,-100,-100,-100,0,0,100,0.00,40.00,0,-999,0,0.00
2013-8-12,66,58,50,-100,-100,-100,0,0,100,0.00,40.00,0,-999,0,0.01
2013-8-13,70,60,50,-100,-100,-100,0,0,100,0.00,40.00,0,-999,0,0.00
2013-8-14,72,63,56,-100,-100,-100,0,0,100,0.00,40.00,0,-999,0,0.00
2013-8-15,70,63,57,-100,-100,-100,0,0,100,0.00,40.00,0,-999,0,0.01
2013-8-16,69,62,56,-100,-100,-100,0,0,100,0.00,40.00,0,-999,0,0.01
2013-8-18,74,69,63,-100,-100,-100,0,0,100,0.00,40.00,0,-999,0,0.00
2013-8-19,68,64,60,-100,-100,-100,0,0,100,0.00,40.00,0,-999,0,0.01
2013-8-20,72,63,57,-100,-100,-100,0,0,100,0.00,40.00,0,-999,0,0.02
2013-8-21,68,59,53,-100,-100,-100,0,0,100,0.00,40.00,0,-999,0,0.01
2013-8-22,65,59,56,-100,-100,-100,0,0,100,0.00,40.00,0,-999,0,0.01
2013-8-23,64,58,52,-100,-100,-100,0,0,100,0.00,40.00,0,-999,0,0.01
2013-8-24,63,57,53,-100,-100,-100,0,0,100,0.00,40.00,0,-999,0,0.01
2013-8-25,59,54,51,-100,-100,-100,0,0,100,0.00,40.00,0,-999,0,0.01
2013-8-26,63,56,52,-100,-100,-100,0,0,100,0.00,40.00,0,-999,0,0.00
2013-8-27,65,59,55,-100,-100,-100,0,0,100,0.00,40.00,0,-999,0,0.00
2013-8-28,64,61,58,-100,-100,-100,0,0,100,0.00,40.00,0,-999,0,0.01
2013-8-29,68,61,55,-100,-100,-100,0,0,100,0.00,40.00,0,-999,0,0.00
2013-8-30,73,65,58,-100,-100,-100,0,0,100,0.00,40.00,0,-999,0,0.00
2013-8-31,71,64,59,-100,-100,-100,0,0,100,0.00,40.00,0,-999,0,0.00
2013-9-1,66,60,56,-100,-100,-100,0,0,100,0.00,40.00,0,-999,0,0.02
2013-9-2,63,58,56,-100,-100,-100,0,0,100,0.00,40.00,0,-999,0,0.01
2013-9-3,67,59,55,-100,-100,-100,0,0,100,0.00,40.00,0,-999,0,0.01
2013-9-4,66,61,56,-100,-100,-100,0,0,100,0.00,40.00,0,-999,0,0.01
2013-9-5,63,58,54,-100,-100,-100,0,0,100,0.00,40.00,0,-999,0,0.01
2013-9-6,69,60,54,-100,-100,-100,0,0,100,0.00,40.00,0,-999,0,0.00
2013-9-7,69,62,54,-100,-100,-100,0,0,100,0.00,40.00,0,-999,0,0.01
2013-9-8,72,62,54,-100,-100,-100,0,0,100,0.00,40.00,0,-999,0,0.00
2013-9-9,70,61,52,-100,-100,-100,0,0,100,0.00,40.00,0,-999,0,0.01
2013-9-10,70,61,52,-100,-100,-100,0,0,100,0.00,40.00,0,-999,0,0.00
2013-9-11,68,60,53,-100,-100,-100,0,0,100,0.00,40.00,0,-999,0,0.01
2013-9-12,66,59,53,-100,-100,-100,0,0,100,0.00,40.00,0,-999,0,0.01
2013-9-13,66,57,50,-100,-100,-100,0,0,100,0.00,40.00,0,-999,0,0.01
2013-9-14,71,60,52,-100,-100,-100,0,0,100,0.00,40.00,0,-999,0,0.01
2013-9-15,66,60,57,-100,-100,-100,0,0,100,0.00,40.00,0,-999,0,0.01
2013-9-16,65,58,53,-100,-100,-100,0,0,100,0.00,40.00,0,-999,0,0.01
2013-9-17,55,50,44,-100,-100,-100,0,0,100,0.00,40.00,0,-999,0,0.01
2013-9-18,51,42,37,-100,-100,-100,0,0,100,0.00,40.00,0,-999,0,0.00
2013-9-19,66,55,44,-100,-100,-100,0,0,100,0.00,40.00,0,-999,0,0.00
2013-9-20,61,55,45,-100,-100,-100,0,0,100,0.00,40.00,0,-999,0,0.01
2013-9-21,46,40,32,-100,-100,-100,0,0,100,0.00,40.00,0,-999,0,0.03
2013-9-22,50,40,30,-100,-100,-100,0,0,100,0.00,40.00,0,-999,0,0.02
2013-9-23,62,50,40,-100,-100,-100,0,0,100,0.00,40.00,0,-999,0,0.00
2013-9-24,54,49,40,-100,-100,-100,0,0,100,0.00,40.00,0,-999,0,0.02
2013-9-25,41,36,31,-100,-100,-100,0,0,100,0.00,40.00,0,-999,0,0.02
2013-9-26,40,34,29,-100,-100,-100,0,0,100,0.00,40.00,0,-999,0,0.01
2013-9-27,51,40,29,-100,-100,-100,0,0,100,0.00,40.00,0,-999,0,0.00
2013-9-28,56,48,41,-100,-100,-100,0,0,100,0.00,40.00,0,-999,0,0.00
2013-10-2,51,46,40,-100,-100,-100,0,0,100,0.00,40.00,0,-999,0,0.01
2013-10-3,42,39,34,-100,-100,-100,0,0,100,0.00,40.00,0,-999,0,0.01
2013-10-4,47,40,31,-100,-100,-100,0,0,100,0.00,40.00,0,-999,0,0.00
2013-10-5,58,46,34,-100,-100,-100,0,0,100,0.00,40.00,0,-999,0,0.00
2013-10-6,64,54,47,-100,-100,-100,0,0,100,0.00,40.00,0,-999,0,0.00
2013-10-7,57,51,46,-100,-100,-100,0,0,100,0.00,40.00,0,-999,0,0.01
2013-10-8,53,45,40,-100,-100,-100,0,0,100,0.00,40.00,0,-999,0,0.01
2013-10-9,38,34,31,-100,-100,-100,0,0,100,0.00,40.00,0,-999,0,0.02
2013-10-10,49,41,33,-100,-100,-100,0,0,100,0.00,40.00,0,-999,0,0.01
2013-10-11,50,43,34,-100,-100,-100,0,0,100,0.00,40.00,0,-999,0,0.01
2013-10-12,49,42,37,-100,-100,-100,0,0,100,0.00,40.00,0,-999,0,0.00
2013-10-13,42,36,32,-100,-100,-100,0,0,100,0.00,40.00,0,-999,0,0.01
2013-10-21,52,48,45,-100,-100,-100,0,0,100,0.00,40.00,0,-999,0,0.00
2013-10-22,59,50,44,-100,-100,-100,0,0,100,0.00,40.00,0,-999,0,0.00
2013-10-23,58,49,43,-100,-100,-100,0,0,100,0.00,40.00,0,-999,0,0.00
2013-10-24,58,54,44,-100,-100,-100,0,0,100,0.00,40.00,0,-999,0,0.00
2013-10-25,48,45,43,-100,-100,-100,0,0,100,0.00,40.00,0,-999,0,0.00
2013-10-26,59,49,43,-100,-100,-100,0,0,100,0.00,40.00,0,-999,0,0.00
2013-10-27,51,45,33,-100,-100,-100,0,0,100,0.00,40.00,0,-999,0,0.02
2013-11-2,43,42,40,-100,-100,-100,0,0,100,0.00,40.00,0,-999,0,0.00
2013-11-3,44,40,36,-100,-100,-100,0,0,100,0.00,40.00,0,-999,0,0.00
2013-11-4,36,31,25,-100,-100,-100,0,0,100,0.00,40.00,0,-999,0,0.01
2013-11-5,47,38,32,-100,-100,-100,0,0,100,0.00,40.00,0,-999,0,0.00
2013-11-6,51,45,38,-100,-100,-100,0,0,100,0.00,40.00,0,-999,0,0.00
2013-11-7,45,44,43,-100,-100,-100,0,0,100,0.00,40.00,0,-999,0,0.00
2013-11-8,52,46,42,-100,-100,-100,0,0,100,0.00,40.00,0,-999,0,0.00
2013-11-12,52,48,43,-100,-100,-100,0,0,100,0.00,40.00,0,-999,0,0.01
2013-11-13,52,50,49,-100,-100,-100,0,0,100,0.00,40.00,0,-999,0,0.00
2013-11-14,50,44,38,-100,-100,-100,0,0,100,0.00,40.00,0,-999,0,0.00
2013-11-15,40,39,38,-100,-100,-100,0,0,100,0.00,40.00,0,-999,0,0.00
2013-11-16,38,35,33,-100,-100,-100,0,0,100,0.00,40.00,0,-999,0,0.00
2013-11-17,49,49,49,-100,-100,-100,0,0,100,0.00,40.00,0,-999,0,0.00
2013-11-18,44,40,35,-100,-100,-100,0,0,100,0.00,40.00,0,-999,0,0.01
2013-11-19,37,35,33,-100,-100,-100,0,0,100,0.00,40.00,0,-999,0,0.02
2013-11-20,34,33,33,-100,-100,-100,0,0,100,0.00,40.00,0,-999,0,0.04
2013-11-21,32,25,20,-100,-100,-100,0,0,100,0.00,40.00,0,-999,0,0.03
2013-11-22,20,20,19,-100,-100,-100,0,0,100,0.00,40.00,0,-999,0,0.00
2013-11-23,36,31,25,-100,-100,-100,0,0,100,0.00,40.00,0,-999,0,0.00
2013-11-24,42,35,28,-100,-100,-100,0,0,100,0.00,40.00,0,-999,0,0.00
2013-11-25,43,37,32,-100,-100,-100,0,0,100,0.00,40.00,0,-999,0,0.00
2013-11-26,52,45,41,-100,-100,-100,0,0,100,0.00,40.00,0,-999,0,0.00
2013-11-27,45,39,36,-100,-100,-100,0,0,100,0.00,40.00,0,-999,0,0.00
2013-11-28,44,35,32,-100,-100,-100,0,0,100,0.00,40.00,0,-999,0,0.00
2013-11-29,45,36,30,-100,-100,-100,0,0,100,0.00,40.00,0,-999,0,0.00
2013-11-30,45,39,33,-100,-100,-100,0,0,100,0.00,40.00,0,-999,0,0.00
2013-12-1,52,39,34,-100,-100,-100,0,0,100,0.00,40.00,0,-999,0,0.00
2013-12-2,47,42,37,-100,-100,-100,0,0,100,0.00,40.00,0,-999,0,0.00
2013-12-3,29,19,8,-100,-100,-100,0,0,100,0.00,40.00,0,-999,0,0.03
2013-12-4,23,16,6,-100,-100,-100,0,0,100,0.00,40.00,0,-999,0,0.01
2013-12-5,24,16,8,-100,-100,-100,0,0,100,0.00,40.00,0,-999,0,0.00
2013-12-6,21,18,16,-100,-100,-100,0,0,100,0.00,40.00,0,-999,0,0.02
2013-12-7,17,13,10,-100,-100,-100,0,0,100,0.00,40.00,0,-999,0,0.05
2013-12-8,21,15,6,-100,-100,-100,0,0,100,0.00,40.00,0,-999,0,0.01
2013-12-9,35,27,15,-100,-100,-100,0,0,100,0.00,40.00,0,-999,0,0.02
2013-12-10,42,36,29,-100,-100,-100,0,0,100,0.00,40.00,0,-999,0,0.00
2013-12-11,40,32,26,-100,-100,-100,0,0,100,0.00,40.00,0,-999,0,0.00
2013-12-12,37,37,37,-100,-100,-100,0,0,100,0.00,40.00,0,-999,0,0.00
2013-12-13,41,34,28,-100,-100,-100,0,0,100,0.00,40.00,0,-999,0,0.01
2013-12-14,47,40,31,-100,-100,-100,0,0,100,0.00,40.00,0,-999,0,0.00
2013-12-15,56,50,43,-100,-100,-100,0,0,100,0.00,40.00,0,-999,0,0.00
2013-12-16,59,47,39,-100,-100,-100,0,0,100,0.00,40.00,0,-999,0,0.00
2013-12-17,48,45,42,-100,-100,-100,0,0,100,0.00,40.00,0,-999,0,0.00
2013-12-18,48,46,45,-100,-100,-100,0,0,100,0.00,40.00,0,-999,0,0.00
2013-12-19,32,25,17,-100,-100,-100,0,0,100,0.00,40.00,0,-999,0,0.01
2013-12-20,39,23,16,-100,-100,-100,0,0,100,0.00,40.00,0,-999,0,0.00
2013-12-21,39,35,32,-100,-100,-100,0,0,100,0.00,40.00,0,-999,0,0.01
2013-12-22,45,39,33,-100,-100,-100,0,0,100,0.00,40.00,0,-999,0,0.00
2013-12-23,50,39,34,-100,-100,-100,0,0,100,0.00,40.00,0,-999,0,0.00
2013-12-24,47,37,34,-100,-100,-100,0,0,100,0.00,40.00,0,-999,0,0.00
2013-12-25,48,40,35,-100,-100,-100,0,0,100,0.00,40.00,0,-999,0,0.00
2013-12-26,53,44,35,-100,-100,-100,0,0,100,0.00,40.00,0,-999,0,0.00
2013-12-27,51,50,50,-100,-100,-100,0,0,100,0.00,40.00,0,-999,0,0.00
2013-12-28,38,34,31,-100,-100,-100,0,0,100,0.00,40.00,0,-999,0,0.00
2013-12-29,49,36,28,-100,-100,-100,0,0,100,0.00,40.00,0,-999,0,0.00
2013-12-30,44,44,44,-100,-100,-100,0,0,100,0.00,40.00,0,-999,0,0.00
2013-12-31,51,42,36,-100,-100,-100,0,0,100,0.00,40.00,0,-999,0,0.00
2014-1-1,50,40,34,-100,-100,-100,0,0,100,0.00,40.00,0,-999,0,0.00
2014-1-2,51,45,41,-100,-100,-100,0,0,100,0.00,40.00,0,-999,0,0.00